Regional Weather Roundup
Issued by NWS

Home | Current Version | Previous Version | Graphics & Text | Print | Product List | Glossary Off
Versions: 1 2 3 4 5 6 7 8 9 10 11 12 13 14 15 16 17 18 19 20 21 22 23 24 25 26 27 28 29 30 31 32 33 34 35 36 37 38 39 40 41 42 43 44 45 46 47 48 49 50

000
ASUS43 KTOP 061959
RWRKS

WEATHER ROUNDUP FOR KANSAS
NATIONAL WEATHER SERVICE GOODLAND KS
300 PM CDT MON JUL 06 2015

NOTE:  "FAIR" INDICATES FEW OR NO CLOUDS BELOW 12,000 FEET WITH NO
SIGNIFICANT WEATHER AND/OR OBSTRUCTIONS TO VISIBILITY.

KSZ001>006-013>018-027>032-041>047-062100-
NORTHWEST KANSAS

CITY           SKY/WX    TMP DP  RH WIND       PRES   REMARKS
GOODLAND       CLOUDY    68  58  70 N20       30.17R
HAYS           CLOUDY    73  63  68 N17G25    29.98S
HILL CITY      CLOUDY    72  63  73 N18G30    30.05R
RUSSELL        CLOUDY    75  70  84 N17       29.94S
$$

KSZ061>065-074>080-084>089-062100-
SOUTHWEST KANSAS

CITY           SKY/WX    TMP DP  RH WIND       PRES   REMARKS
DODGE CITY     CLOUDY    75  65  70 N25G33    29.98S
ELKHART          N/A     79  56  45 N21         N/A
GARDEN CITY    LGT RAIN  72  64  76 N24       30.04R
GREAT BEND     CLOUDY    75  70  83 N13G23    29.94S
$$

KSZ066>073-081>083-090>101-062100-
SOUTHEAST KANSAS

CITY           SKY/WX    TMP DP  RH WIND       PRES   REMARKS
CHANUTE        MOSUNNY   89  74  60 S22G29    29.89F HX  98
COFFEYVILLE    MOSUNNY   91  74  57 S16G25    29.90F HX 100
HUTCHINSON     CLOUDY    87  72  60 NW13      29.84S THUNDER
MEDICINE LODGE   N/A     95  69  42 S15       29.83F HX 100
NEWTON         PTSUNNY   91  68  46 S28G36    29.83F HX  95
PARSONS        PTSUNNY   88  75  65 S17G24    29.91F HX  97
WICHITA INTL   LGT RAIN  93  70  46 S20G28    29.81F HX  99
WICHITA JABRA  PTSUNNY   90  70  51 S15G26    29.82F HX  95
WINFIELD       MOSUNNY   93  71  48 S21G26    29.87F HX 100
$$

KSZ007>012-019>026-033>040-048>060-102>105-062100-
NORTHEAST KANSAS

CITY           SKY/WX    TMP DP  RH WIND       PRES   REMARKS
CONCORDIA      LGT RAIN  73  71  93 N13       29.92S
EMPORIA        MOSUNNY   89  72  56 S18G26    29.82F HX  96
LAWRENCE       MOSUNNY   90  74  59 S14       29.80F HX  99
MANHATTAN      TSTM      75  74  96 N16G30    29.82F VSB 1/2
OLATHE IND     LGT RAIN  90  75  61 S16G26    29.85F HX 100
OLATHE EXE     PTSUNNY   86  74  67 S20G25    29.84F
SALINA         CLOUDY    76  73  91 N17       29.86F FOG
TOPEKA BILLARD PTSUNNY   89  74  60 S14       29.80F THUNDER HX  98
TOPEKA FORBES  MOSUNNY   92  75  57 S16       29.80F HX 103
$$



USA.gov is the U.S. government's official web portal to all federal, state and local government web resources and services.